{"data":{"norad_id":61728,"intl_designator":"2024-196X","name":"STARLINK-32475","alt_names":[],"object_type":"PAYLOAD","status":"ACTIVE","operator":null,"country":"US","launch_date":"2024-10-30","launch_site_code":"AFETR","launch_vehicle":null,"mission":null,"orbit_class":"UNKNOWN","rcs_meters":null,"size_class":null,"mass_kg":null,"dimensions":null,"purposes":["comms"],"wikipedia_slug":null,"has_3d_model":false,"image_url":null,"decayed_at":null,"tle_current":{"epoch":"2026-05-25T03:31:39.571392Z","epoch_age_seconds":59662,"freshness":"FRESH","line1":"1 61728U 24196X   26145.14698578 -.00000298  00000+0  20619-5 0  9994","line2":"2 61728  53.1614 106.1200 0001309  86.5608 273.5543 15.30189187 88864","mean_motion":15.30189187,"eccentricity":0.0001309,"inclination_deg":53.1614,"raan_deg":106.12,"arg_perigee_deg":86.5608,"mean_anomaly_deg":273.5543,"bstar":2.0619e-6,"rev_number":8886,"period_min":94.106010696833,"perigee_km":474.35024726628,"apogee_km":476.14446329049,"semimajor_km":6853.3843552784,"source":"CELESTRAK","updated_at":"2026-05-25T13:38:19.448725Z"}}}